11-08-2022, 00:00:01,    100,    0.0,   17.2,   0.00,   0.00, 1020.2,   56.7, -999.0
11-08-2022, 00:00:12,    101,    0.0,   17.2,   0.00,   0.00, 1020.3,   56.7, -999.0
11-08-2022, 00:00:22,    100,    0.0,   17.2,   0.00,   0.00, 1020.3,   56.7, -999.0
11-08-2022, 00:00:31,    101,    0.0,   17.1,   0.00,   0.00, 1020.2,   56.6, -999.0
11-08-2022, 00:00:41,    100,    0.0,   17.2,   0.00,   0.00, 1020.3,   56.7, -999.0
11-08-2022, 00:00:51,    100,    0.0,   17.1,   0.00,   0.00, 1020.3,   56.8, -999.0
11-08-2022, 00:01:01,    101,    0.0,   17.1,   0.00,   0.00, 1020.3,   56.8, -999.0
11-08-2022, 00:01:11,    100,    0.0,   17.1,   0.00,   0.00, 1020.2,   56.8, -999.0
11-08-2022, 00:01:21,    100,    0.0,   17.0,   0.00,   0.00, 1020.2,   56.9, -999.0
11-08-2022, 00:01:31,    100,    0.0,   17.1,   0.00,   0.00, 1020.3,   57.0, -999.0
11-08-2022, 00:01:41,    100,    0.0,   17.0,   0.00,   0.00, 1020.3,   57.1, -999.0
11-08-2022, 00:01:51,    100,    0.0,   17.1,   0.00,   0.00, 1020.2,   57.0, -999.0
11-08-2022, 00:02:01,    100,    0.0,   17.0,   0.00,   0.00, 1020.2,   57.0, -999.0
11-08-2022, 00:02:11,    100,    0.0,   17.1,   0.00,   0.00, 1020.3,   57.1, -999.0
11-08-2022, 00:02:21,    101,    0.0,   17.1,   0.00,   0.00, 1020.3,   57.0, -999.0
11-08-2022, 00:02:31,    101,    0.0,   17.1,   0.00,   0.00, 1020.3,   57.0, -999.0
11-08-2022, 00:02:41,    100,    0.0,   17.1,   0.00,   0.00, 1020.3,   57.0, -999.0
11-08-2022, 00:02:51,    100,    0.0,   17.1,   0.00,   0.00, 1020.3,   57.0, -999.0
11-08-2022, 00:03:00,    100,    0.0,   17.0,   0.00,   0.00, 1020.2,   57.0, -999.0
11-08-2022, 00:03:10,    100,    0.0,   17.0,   0.00,   0.00, 1020.2,   57.0, -999.0
11-08-2022, 00:03:21,    101,    0.0,   17.0,   0.00,   0.00, 1020.2,   56.9, -999.0
11-08-2022, 00:03:30,    101,    0.0,   16.9,   0.00,   0.00, 1020.3,   57.0, -999.0
11-08-2022, 00:03:40,    100,    0.0,   16.9,   0.00,   0.00, 1020.2,   57.2, -999.0
11-08-2022, 00:03:50,    100,    0.0,   16.9,   0.00,   0.00, 1020.3,   57.2, -999.0
11-08-2022, 00:04:00,    100,    0.0,   16.9,   0.00,   0.00, 1020.3,   57.0, -999.0
11-08-2022, 00:04:10,    100,    0.0,   16.9,   0.00,   0.00, 1020.3,   57.1, -999.0
11-08-2022, 00:04:20,    100,    0.0,   16.9,   0.00,   0.00, 1020.3,   57.2, -999.0
11-08-2022, 00:04:30,    100,    0.0,   17.0,   0.00,   0.00, 1020.2,   57.3, -999.0
11-08-2022, 00:04:40,    101,    0.0,   16.9,   0.00,   0.00, 1020.3,   57.2, -999.0
11-08-2022, 00:04:50,    100,    0.0,   16.9,   0.00,   0.00, 1020.2,   57.3, -999.0
11-08-2022, 00:05:00,    100,    0.0,   16.9,   0.00,   0.00, 1020.3,   57.3, -999.0
11-08-2022, 00:05:10,    100,    0.0,   17.0,   0.00,   0.00, 1020.2,   57.4, -999.0
11-08-2022, 00:05:20,    101,    0.0,   16.9,   0.00,   0.00, 1020.3,   57.3, -999.0
11-08-2022, 00:05:30,    101,    0.0,   16.9,   0.00,   0.00, 1020.2,   57.3, -999.0
11-08-2022, 00:05:40,    101,    0.0,   16.9,   0.00,   0.00, 1020.3,   57.3, -999.0
11-08-2022, 00:05:50,    100,    0.0,   16.8,   0.00,   0.00, 1020.3,   57.4, -999.0
11-08-2022, 00:05:59,    100,    0.0,   16.9,   0.00,   0.00, 1020.3,   57.3, -999.0
11-08-2022, 00:06:09,    100,    0.0,   16.9,   0.00,   0.00, 1020.3,   57.5, -999.0
11-08-2022, 00:06:20,    101,    0.0,   16.8,   0.00,   0.00, 1020.3,   57.5, -999.0
11-08-2022, 00:06:29,    100,    0.0,   16.8,   0.00,   0.00, 1020.3,   57.4, -999.0
11-08-2022, 00:06:39,    100,    0.0,   16.8,   0.00,   0.00, 1020.3,   57.5, -999.0
11-08-2022, 00:06:49,    100,    0.0,   16.8,   0.00,   0.00, 1020.3,   57.5, -999.0
11-08-2022, 00:06:59,    100,    0.0,   16.8,   0.00,   0.00, 1020.3,   57.5, -999.0
11-08-2022, 00:07:09,    100,    0.0,   16.8,   0.00,   0.00, 1020.3,   57.5, -999.0
11-08-2022, 00:07:19,    100,    0.0,   16.7,   0.00,   0.00, 1020.3,   57.5, -999.0
11-08-2022, 00:07:29,    100,    0.0,   16.7,   0.00,   0.00, 1020.3,   57.7, -999.0
11-08-2022, 00:07:39,    100,    0.0,   16.7,   0.00,   0.00, 1020.3,   57.7, -999.0
11-08-2022, 00:07:49,    100,    0.0,   16.7,   0.00,   0.00, 1020.3,   57.7, -999.0
11-08-2022, 00:07:59,    100,    0.0,   16.7,   0.00,   0.00, 1020.2,   57.8, -999.0
11-08-2022, 00:08:09,    101,    0.0,   16.6,   0.00,   0.00, 1020.3,   57.7, -999.0
11-08-2022, 00:08:19,    101,    0.0,   16.6,   0.00,   0.00, 1020.3,   57.8, -999.0
11-08-2022, 00:08:29,    100,    0.0,   16.6,   0.00,   0.00, 1020.3,   58.0, -999.0
11-08-2022, 00:08:38,    100,    0.0,   16.6,   0.00,   0.00, 1020.3,   58.2, -999.0
11-08-2022, 00:08:49,    101,    0.0,   16.6,   0.00,   0.00, 1020.3,   58.1, -999.0
11-08-2022, 00:08:58,    101,    0.0,   16.7,   0.00,   0.00, 1020.3,   58.2, -999.0
11-08-2022, 00:09:08,    100,    0.0,   16.7,   0.00,   0.00, 1020.3,   58.2, -999.0
11-08-2022, 00:09:18,    100,    0.0,   16.7,   0.00,   0.00, 1020.3,   58.1, -999.0
11-08-2022, 00:09:28,    100,    0.0,   16.7,   0.00,   0.00, 1020.3,   58.1, -999.0
11-08-2022, 00:09:38,    101,    0.0,   16.7,   0.00,   0.00, 1020.3,   58.1, -999.0
11-08-2022, 00:09:48,    100,    0.0,   16.6,   0.00,   0.00, 1020.3,   58.3, -999.0
11-08-2022, 00:09:58,    100,    0.0,   16.6,   0.00,   0.00, 1020.3,   58.1, -999.0
11-08-2022, 00:10:08,    100,    0.0,   16.7,   0.00,   0.00, 1020.3,   58.0, -999.0
11-08-2022, 00:10:18,    100,    0.0,   16.8,   0.00,   0.00, 1020.3,   58.1, -999.0
11-08-2022, 00:10:28,    100,    0.0,   16.7,   0.00,   0.00, 1020.3,   58.1, -999.0
11-08-2022, 00:10:38,    100,    0.0,   16.7,   0.00,   0.00, 1020.3,   58.2, -999.0
11-08-2022, 00:10:48,    100,    0.0,   16.7,   0.00,   0.00, 1020.3,   58.2, -999.0
11-08-2022, 00:11:00,    100,    0.0,   16.6,   0.00,   0.00, 1020.3,   58.1, -999.0
11-08-2022, 00:11:07,    100,    0.0,   16.6,   0.00,   0.00, 1020.2,   58.2, -999.0
11-08-2022, 00:11:18,    100,    0.0,   16.6,   0.00,   0.00, 1020.2,   58.3, -999.0
11-08-2022, 00:11:27,    100,    0.0,   16.7,   0.00,   0.00, 1020.2,   58.3, -999.0
11-08-2022, 00:11:37,    101,    0.0,   16.6,   0.00,   0.00, 1020.3,   58.3, -999.0
11-08-2022, 00:11:48,    101,    0.0,   16.6,   0.00,   0.00, 1020.3,   58.2, -999.0
11-08-2022, 00:11:57,    100,    0.0,   16.6,   0.00,   0.00, 1020.2,   58.2, -999.0
11-08-2022, 00:12:07,    100,    0.0,   16.6,   0.00,   0.00, 1020.2,   58.3, -999.0
11-08-2022, 00:12:17,    101,    0.0,   16.6,   0.00,   0.00, 1020.3,   58.3, -999.0
11-08-2022, 00:12:27,    100,    0.0,   16.6,   0.00,   0.00, 1020.2,   58.5, -999.0
11-08-2022, 00:12:37,    100,    0.0,   16.7,   0.00,   0.00, 1020.2,   58.4, -999.0
11-08-2022, 00:12:47,    101,    0.0,   16.6,   0.00,   0.00, 1020.2,   58.5, -999.0
11-08-2022, 00:12:57,    101,    0.0,   16.6,   0.00,   0.00, 1020.2,   58.4, -999.0
11-08-2022, 00:13:07,    100,    0.0,   16.7,   0.00,   0.00, 1020.2,   58.4, -999.0
11-08-2022, 00:13:17,    100,    0.0,   16.6,   0.00,   0.00, 1020.2,   58.4, -999.0
11-08-2022, 00:13:27,    100,    0.0,   16.6,   0.00,   0.00, 1020.2,   58.5, -999.0
11-08-2022, 00:13:36,    100,    0.0,   16.6,   0.00,   0.00, 1020.2,   58.4, -999.0
11-08-2022, 00:13:47,    101,    0.0,   16.6,   0.00,   0.00, 1020.2,   58.5, -999.0
11-08-2022, 00:13:57,    101,    0.0,   16.5,   0.00,   0.00, 1020.2,   58.6, -999.0
11-08-2022, 00:14:06,    100,    0.0,   16.7,   0.00,   0.00, 1020.2,   58.5, -999.0
11-08-2022, 00:14:17,    100,    0.0,   16.6,   0.00,   0.00, 1020.2,   58.4, -999.0
11-08-2022, 00:14:26,    101,    0.0,   16.7,   0.00,   0.00, 1020.3,   58.6, -999.0
11-08-2022, 00:14:36,    100,    0.0,   16.7,   0.00,   0.00, 1020.2,   58.6, -999.0
11-08-2022, 00:14:46,    101,    0.0,   16.6,   0.00,   0.00, 1020.2,   58.6, -999.0
11-08-2022, 00:14:56,    100,    0.0,   16.7,   0.00,   0.00, 1020.2,   58.7, -999.0
11-08-2022, 00:15:06,    101,    0.0,   16.6,   0.00,   0.00, 1020.3,   58.6, -999.0
11-08-2022, 00:15:16,    100,    0.0,   16.6,   0.00,   0.00, 1020.2,   58.6, -999.0
11-08-2022, 00:15:26,    100,    0.0,   16.6,   0.00,   0.00, 1020.2,   58.6, -999.0
11-08-2022, 00:15:36,    100,    0.0,   16.5,   0.00,   0.00, 1020.3,   58.6, -999.0
11-08-2022, 00:15:46,    101,    0.0,   16.6,   0.00,   0.00, 1020.2,   58.6, -999.0
11-08-2022, 00:15:56,    101,    0.0,   16.6,   0.00,   0.00, 1020.2,   58.7, -999.0
11-08-2022, 00:16:06,    100,    0.0,   16.6,   0.00,   0.00, 1020.2,   58.6, -999.0
11-08-2022, 00:16:16,    100,    0.0,   16.7,   0.00,   0.00, 1020.2,   58.6, -999.0
11-08-2022, 00:16:26,    100,    0.0,   16.7,   0.00,   0.00, 1020.2,   58.7, -999.0
11-08-2022, 00:16:35,    100,    0.0,   16.6,   0.00,   0.00, 1020.2,   58.6, -999.0
11-08-2022, 00:16:46,    100,    0.0,   16.6,   0.00,   0.00, 1020.2,   58.7, -999.0
11-08-2022, 00:16:56,    100,    0.0,   16.6,   0.00,   0.00, 1020.2,   58.7, -999.0
11-08-2022, 00:17:05,    100,    0.0,   16.6,   0.00,   0.00, 1020.2,   58.8, -999.0
11-08-2022, 00:17:15,    100,    0.0,   16.6,   0.00,   0.00, 1020.2,   58.7, -999.0
11-08-2022, 00:17:25,    100,    0.0,   16.6,   0.00,   0.00, 1020.2,   58.8, -999.0
11-08-2022, 00:17:35,    100,    0.0,   16.6,   0.00,   0.00, 1020.2,   58.8, -999.0
11-08-2022, 00:17:45,    100,    0.0,   16.6,   0.00,   0.00, 1020.3,   58.7, -999.0
11-08-2022, 00:17:55,    100,    0.0,   16.7,   0.00,   0.00, 1020.3,   58.8, -999.0
11-08-2022, 00:18:05,    101,    0.0,   16.7,   0.00,   0.00, 1020.3,   58.8, -999.0
11-08-2022, 00:18:15,    101,    0.0,   16.5,   0.00,   0.00, 1020.3,   58.9, -999.0
11-08-2022, 00:18:25,    100,    0.0,   16.7,   0.00,   0.00, 1020.3,   58.8, -999.0
11-08-2022, 00:18:35,    101,    0.0,   16.6,   0.00,   0.00, 1020.2,   58.9, -999.0
11-08-2022, 00:18:45,    100,    0.0,   16.6,   0.00,   0.00, 1020.2,   58.9, -999.0
11-08-2022, 00:18:55,    100,    0.0,   16.6,   0.00,   0.00, 1020.3,   58.9, -999.0
11-08-2022, 00:19:05,    100,    0.0,   16.6,   0.00,   0.00, 1020.2,   59.0, -999.0
11-08-2022, 00:19:15,    100,    0.0,   16.6,   0.00,   0.00, 1020.2,   58.8, -999.0
11-08-2022, 00:19:25,    100,    0.0,   16.6,   0.00,   0.00, 1020.2,   58.9, -999.0
11-08-2022, 00:19:34,    100,    0.0,   16.6,   0.00,   0.00, 1020.2,   58.9, -999.0
11-08-2022, 00:19:44,    100,    0.0,   16.6,   0.00,   0.00, 1020.2,   58.9, -999.0
11-08-2022, 00:19:55,    100,    0.0,   16.5,   0.00,   0.00, 1020.2,   58.9, -999.0
11-08-2022, 00:20:04,    100,    0.0,   16.7,   0.00,   0.00, 1020.2,   58.9, -999.0
11-08-2022, 00:20:14,    100,    0.0,   16.6,   0.00,   0.00, 1020.3,   58.9, -999.0
11-08-2022, 00:20:24,    101,    0.0,   16.6,   0.00,   0.00, 1020.3,   58.9, -999.0
11-08-2022, 00:20:34,    100,    0.0,   16.6,   0.00,   0.00, 1020.3,   58.9, -999.0
11-08-2022, 00:20:44,    101,    0.0,   16.6,   0.00,   0.00, 1020.2,   59.0, -999.0
11-08-2022, 00:20:54,    100,    0.0,   16.5,   0.00,   0.00, 1020.3,   59.1, -999.0
11-08-2022, 00:21:04,    100,    0.0,   16.6,   0.00,   0.00, 1020.2,   59.1, -999.0
11-08-2022, 00:21:14,    101,    0.0,   16.7,   0.00,   0.00, 1020.2,   59.1, -999.0
11-08-2022, 00:21:24,    100,    0.0,   16.6,   0.00,   0.00, 1020.3,   59.1, -999.0
11-08-2022, 00:21:34,    101,    0.0,   16.6,   0.00,   0.00, 1020.3,   59.1, -999.0
11-08-2022, 00:21:44,    100,    0.0,   16.6,   0.00,   0.00, 1020.2,   59.1, -999.0
11-08-2022, 00:21:54,    100,    0.0,   16.6,   0.00,   0.00, 1020.3,   59.1, -999.0
11-08-2022, 00:22:04,    100,    0.0,   16.7,   0.00,   0.00, 1020.3,   59.1, -999.0
11-08-2022, 00:22:13,    100,    0.0,   16.6,   0.00,   0.00, 1020.3,   59.0, -999.0
11-08-2022, 00:22:24,    100,    0.0,   16.6,   0.00,   0.00, 1020.2,   59.1, -999.0
11-08-2022, 00:22:33,    100,    0.0,   16.7,   0.00,   0.00, 1020.3,   59.1, -999.0
11-08-2022, 00:22:43,    100,    0.0,   16.5,   0.00,   0.00, 1020.2,   59.0, -999.0
11-08-2022, 00:22:54,    100,    0.0,   16.6,   0.00,   0.00, 1020.3,   59.1, -999.0
11-08-2022, 00:23:03,    101,    0.0,   16.6,   0.00,   0.00, 1020.3,   59.1, -999.0
11-08-2022, 00:23:13,    101,    0.0,   16.6,   0.00,   0.00, 1020.3,   59.1, -999.0
11-08-2022, 00:23:23,    100,    0.0,   16.6,   0.00,   0.00, 1020.3,   59.1, -999.0
11-08-2022, 00:23:33,     99,    0.0,   16.6,   0.00,   0.00, 1020.2,   59.1, -999.0
11-08-2022, 00:23:43,    100,    0.0,   16.5,   0.00,   0.00, 1020.3,   59.2, -999.0
11-08-2022, 00:23:53,    100,    0.0,   16.6,   0.00,   0.00, 1020.3,   59.1, -999.0
11-08-2022, 00:24:03,    100,    0.0,   16.6,   0.00,   0.00, 1020.3,   59.1, -999.0
11-08-2022, 00:24:13,    100,    0.0,   16.7,   0.00,   0.00, 1020.3,   59.1, -999.0
11-08-2022, 00:24:23,    100,    0.0,   16.7,   0.00,   0.00, 1020.2,   59.3, -999.0
11-08-2022, 00:24:33,    100,    0.0,   16.5,   0.00,   0.00, 1020.2,   59.2, -999.0
11-08-2022, 00:24:42,    100,    0.0,   16.6,   0.00,   0.00, 1020.2,   59.2, -999.0
11-08-2022, 00:24:53,    100,    0.0,   16.6,   0.00,   0.00, 1020.2,   59.3, -999.0
11-08-2022, 00:25:03,    100,    0.0,   16.6,   0.00,   0.00, 1020.2,   59.4, -999.0
11-08-2022, 00:25:12,    101,    0.0,   16.6,   0.00,   0.00, 1020.2,   59.3, -999.0
11-08-2022, 00:25:23,    100,    0.0,   16.6,   0.00,   0.00, 1020.2,   59.4, -999.0
11-08-2022, 00:25:33,    100,    0.0,   16.6,   0.00,   0.00, 1020.2,   59.3, -999.0
11-08-2022, 00:25:42,    100,    0.0,   16.6,   0.00,   0.00, 1020.2,   59.3, -999.0
11-08-2022, 00:25:52,    100,    0.0,   16.6,   0.00,   0.00, 1020.2,   59.3, -999.0
11-08-2022, 00:26:02,    100,    0.0,   16.6,   0.00,   0.00, 1020.2,   59.2, -999.0
11-08-2022, 00:26:12,    101,    0.0,   16.5,   0.00,   0.00, 1020.2,   59.3, -999.0
11-08-2022, 00:26:22,    100,    0.0,   16.7,   0.00,   0.00, 1020.2,   59.3, -999.0
11-08-2022, 00:26:32,    100,    0.0,   16.7,   0.00,   0.00, 1020.2,   59.2, -999.0
11-08-2022, 00:26:42,    100,    0.0,   16.6,   0.00,   0.00, 1020.2,   59.3, -999.0
11-08-2022, 00:26:52,    101,    0.0,   16.6,   0.00,   0.00, 1020.2,   59.3, -999.0
11-08-2022, 00:27:02,    102,    0.0,   16.7,   0.00,   0.00, 1020.2,   59.2, -999.0
11-08-2022, 00:27:12,    101,    0.0,   16.6,   0.00,   0.00, 1020.2,   59.2, -999.0
11-08-2022, 00:27:22,    101,    0.0,   16.7,   0.00,   0.00, 1020.3,   59.2, -999.0
11-08-2022, 00:27:32,    100,    0.0,   16.6,   0.00,   0.00, 1020.2,   59.2, -999.0
11-08-2022, 00:27:41,    100,    0.0,   16.6,   0.00,   0.00, 1020.2,   59.2, -999.0
11-08-2022, 00:27:52,    100,    0.0,   16.7,   0.00,   0.00, 1020.2,   59.1, -999.0
11-08-2022, 00:28:02,    100,    0.0,   16.6,   0.00,   0.00, 1020.2,   59.2, -999.0
11-08-2022, 00:28:11,    100,    0.0,   16.6,   0.00,   0.00, 1020.2,   59.3, -999.0
11-08-2022, 00:28:21,    100,    0.0,   16.7,   0.00,   0.00, 1020.2,   59.2, -999.0
11-08-2022, 00:28:32,    100,    0.0,   16.6,   0.00,   0.00, 1020.2,   59.3, -999.0
11-08-2022, 00:28:41,    100,    0.0,   16.6,   0.00,   0.00, 1020.2,   59.2, -999.0
11-08-2022, 00:28:51,    100,    0.0,   16.6,   0.00,   0.00, 1020.2,   59.2, -999.0
11-08-2022, 00:29:01,    101,    0.0,   16.5,   0.00,   0.00, 1020.2,   59.2, -999.0
11-08-2022, 00:29:11,    101,    0.0,   16.6,   0.00,   0.00, 1020.2,   59.4, -999.0
11-08-2022, 00:29:21,    100,    0.0,   16.5,   0.00,   0.00, 1020.2,   59.3, -999.0
11-08-2022, 00:29:31,    100,    0.0,   16.5,   0.00,   0.00, 1020.2,   59.4, -999.0
11-08-2022, 00:29:41,    101,    0.0,   16.6,   0.00,   0.00, 1020.2,   59.3, -999.0
11-08-2022, 00:29:51,    101,    0.0,   16.6,   0.00,   0.00, 1020.2,   59.5, -999.0
11-08-2022, 00:30:01,    100,    0.0,   16.4,   0.00,   0.00, 1020.2,   59.4, -999.0
11-08-2022, 00:30:11,    101,    0.0,   16.5,   0.00,   0.00, 1020.2,   59.5, -999.0
11-08-2022, 00:30:21,    100,    0.0,   16.4,   0.00,   0.00, 1020.2,   59.6, -999.0
11-08-2022, 00:30:31,    101,    0.0,   16.5,   0.00,   0.00, 1020.2,   59.6, -999.0
11-08-2022, 00:30:40,    101,    0.0,   16.4,   0.00,   0.00, 1020.2,   59.6, -999.0
11-08-2022, 00:30:50,    100,    0.0,   16.5,   0.00,   0.00, 1020.2,   59.7, -999.0
11-08-2022, 00:31:01,    100,    0.0,   16.5,   0.00,   0.00, 1020.3,   59.8, -999.0
11-08-2022, 00:31:10,    100,    0.0,   16.5,   0.00,   0.00, 1020.2,   59.8, -999.0
11-08-2022, 00:31:20,    100,    0.0,   16.4,   0.00,   0.00, 1020.2,   59.8, -999.0
11-08-2022, 00:31:30,    100,    0.0,   16.4,   0.00,   0.00, 1020.2,   59.9, -999.0
11-08-2022, 00:31:40,    101,    0.0,   16.5,   0.00,   0.00, 1020.2,   59.8, -999.0
11-08-2022, 00:31:50,    100,    0.0,   16.5,   0.00,   0.00, 1020.2,   59.8, -999.0
11-08-2022, 00:32:00,    100,    0.0,   16.5,   0.00,   0.00, 1020.3,   59.9, -999.0
11-08-2022, 00:32:10,    100,    0.0,   16.5,   0.00,   0.00, 1020.2,   59.9, -999.0
11-08-2022, 00:32:20,    100,    0.0,   16.3,   0.00,   0.00, 1020.2,   60.0, -999.0
11-08-2022, 00:32:30,    100,    0.0,   16.5,   0.00,   0.00, 1020.2,   59.9, -999.0
11-08-2022, 00:32:40,    100,    0.0,   16.5,   0.00,   0.00, 1020.3,   59.8, -999.0
11-08-2022, 00:32:50,    101,    0.0,   16.5,   0.00,   0.00, 1020.2,   60.0, -999.0
11-08-2022, 00:33:00,    101,    0.0,   16.4,   0.00,   0.00, 1020.2,   59.9, -999.0
11-08-2022, 00:33:10,    100,    0.0,   16.4,   0.00,   0.00, 1020.2,   60.0, -999.0
11-08-2022, 00:33:19,    100,    0.0,   16.4,   0.00,   0.00, 1020.3,   60.0, -999.0
11-08-2022, 00:33:30,    100,    0.0,   16.4,   0.00,   0.00, 1020.3,   60.0, -999.0
11-08-2022, 00:33:40,    100,    0.0,   16.4,   0.00,   0.00, 1020.3,   60.0, -999.0
11-08-2022, 00:33:49,    100,    0.0,   16.4,   0.00,   0.00, 1020.3,   60.2, -999.0
11-08-2022, 00:33:59,    100,    0.0,   16.4,   0.00,   0.00, 1020.3,   60.3, -999.0
11-08-2022, 00:34:09,    100,    0.0,   16.3,   0.00,   0.00, 1020.3,   60.2, -999.0
11-08-2022, 00:34:19,    101,    0.0,   16.3,   0.00,   0.00, 1020.3,   60.2, -999.0
11-08-2022, 00:34:29,    101,    0.0,   16.3,   0.00,   0.00, 1020.3,   60.4, -999.0
11-08-2022, 00:34:39,     99,    0.0,   16.3,   0.00,   0.00, 1020.3,   60.4, -999.0
11-08-2022, 00:34:49,    100,    0.0,   16.2,   0.00,   0.00, 1020.3,   60.5, -999.0
11-08-2022, 00:34:59,    100,    0.0,   16.3,   0.00,   0.00, 1020.3,   60.5, -999.0
11-08-2022, 00:35:09,    100,    0.0,   16.2,   0.00,   0.00, 1020.3,   60.6, -999.0
11-08-2022, 00:35:19,    101,    0.0,   16.3,   0.00,   0.00, 1020.3,   60.7, -999.0
11-08-2022, 00:35:29,    101,    0.0,   16.2,   0.00,   0.00, 1020.3,   60.7, -999.0
11-08-2022, 00:35:39,    100,    0.0,   16.2,   0.00,   0.00, 1020.3,   60.6, -999.0
11-08-2022, 00:35:49,    100,    0.0,   16.2,   0.00,   0.00, 1020.3,   60.7, -999.0
11-08-2022, 00:35:59,    100,    0.0,   16.2,   0.00,   0.00, 1020.3,   60.7, -999.0
11-08-2022, 00:36:09,    101,    0.0,   16.2,   0.00,   0.00, 1020.3,   60.7, -999.0
11-08-2022, 00:36:18,    100,    0.0,   16.2,   0.00,   0.00, 1020.3,   60.6, -999.0
11-08-2022, 00:36:28,    100,    0.0,   16.1,   0.00,   0.00, 1020.3,   60.7, -999.0
11-08-2022, 00:36:39,    100,    0.0,   16.1,   0.00,   0.00, 1020.3,   60.8, -999.0
11-08-2022, 00:36:48,    100,    0.0,   16.2,   0.00,   0.00, 1020.3,   60.9, -999.0
11-08-2022, 00:36:58,    100,    0.0,   16.2,   0.00,   0.00, 1020.3,   60.8, -999.0
11-08-2022, 00:37:08,    100,    0.0,   16.2,   0.00,   0.00, 1020.3,   60.9, -999.0
11-08-2022, 00:37:18,    100,    0.0,   16.1,   0.00,   0.00, 1020.3,   60.9, -999.0
11-08-2022, 00:37:28,    100,    0.0,   16.1,   0.00,   0.00, 1020.3,   60.9, -999.0
11-08-2022, 00:37:38,    100,    0.0,   16.1,   0.00,   0.00, 1020.3,   60.9, -999.0
11-08-2022, 00:37:48,    100,    0.0,   16.1,   0.00,   0.00, 1020.3,   61.0, -999.0
11-08-2022, 00:37:58,    100,    0.0,   16.1,   0.00,   0.00, 1020.3,   61.1, -999.0
11-08-2022, 00:38:08,    101,    0.0,   16.0,   0.00,   0.00, 1020.3,   61.1, -999.0
11-08-2022, 00:38:18,    100,    0.0,   16.0,   0.00,   0.00, 1020.3,   61.1, -999.0
11-08-2022, 00:38:28,    100,    0.0,   16.1,   0.00,   0.00, 1020.3,   61.2, -999.0
11-08-2022, 00:38:38,    100,    0.0,   16.1,   0.00,   0.00, 1020.3,   61.2, -999.0
11-08-2022, 00:38:47,    101,    0.0,   16.1,   0.00,   0.00, 1020.3,   61.3, -999.0
11-08-2022, 00:38:58,    101,    0.0,   16.0,   0.00,   0.00, 1020.3,   61.2, -999.0
11-08-2022, 00:39:08,    100,    0.0,   16.1,   0.00,   0.00, 1020.3,   61.3, -999.0
11-08-2022, 00:39:17,    101,    0.0,   16.1,   0.00,   0.00, 1020.3,   61.3, -999.0
11-08-2022, 00:39:27,     96,    0.0,   16.1,   0.00,   0.00, 1020.3,   61.3, -999.0
11-08-2022, 00:39:38,    100,    0.0,   16.1,   0.00,   0.00, 1020.3,   61.4, -999.0
11-08-2022, 00:39:47,    101,    0.0,   16.1,   0.00,   0.00, 1020.3,   61.4, -999.0
11-08-2022, 00:39:57,    100,    0.0,   16.0,   0.00,   0.00, 1020.3,   61.4, -999.0
11-08-2022, 00:40:07,     98,    0.0,   16.1,   0.00,   0.00, 1020.3,   61.4, -999.0
11-08-2022, 00:40:17,    100,    0.0,   16.0,   0.00,   0.00, 1020.3,   61.4, -999.0
11-08-2022, 00:40:27,    100,    0.0,   16.1,   0.00,   0.00, 1020.3,   61.5, -999.0
11-08-2022, 00:40:37,    101,    0.0,   16.1,   0.00,   0.00, 1020.3,   61.4, -999.0
11-08-2022, 00:40:47,    101,    0.0,   16.0,   0.00,   0.00, 1020.3,   61.4, -999.0
11-08-2022, 00:40:57,    100,    0.0,   16.0,   0.00,   0.00, 1020.3,   61.4, -999.0
11-08-2022, 00:41:07,    100,    0.0,   16.1,   0.00,   0.00, 1020.3,   61.4, -999.0
11-08-2022, 00:41:17,    100,    0.0,   16.1,   0.00,   0.00, 1020.3,   61.4, -999.0
11-08-2022, 00:41:27,    101,    0.0,   16.0,   0.00,   0.00, 1020.3,   61.5, -999.0
11-08-2022, 00:41:37,    100,    0.0,   16.1,   0.00,   0.00, 1020.3,   61.4, -999.0
11-08-2022, 00:41:46,    101,    0.0,   16.1,   0.00,   0.00, 1020.3,   61.4, -999.0
11-08-2022, 00:41:56,    101,    0.0,   16.1,   0.00,   0.00, 1020.3,   61.4, -999.0
11-08-2022, 00:42:07,    100,    0.0,   16.1,   0.00,   0.00, 1020.3,   61.4, -999.0
11-08-2022, 00:42:16,    100,    0.0,   16.1,   0.00,   0.00, 1020.3,   61.5, -999.0
11-08-2022, 00:42:26,    100,    0.0,   16.1,   0.00,   0.00, 1020.3,   61.5, -999.0
11-08-2022, 00:42:36,    101,    0.0,   16.1,   0.00,   0.00, 1020.3,   61.6, -999.0
11-08-2022, 00:42:46,    100,    0.0,   16.1,   0.00,   0.00, 1020.2,   61.7, -999.0
11-08-2022, 00:42:56,    101,    0.0,   16.0,   0.00,   0.00, 1020.3,   61.5, -999.0
11-08-2022, 00:43:06,    100,    0.0,   16.0,   0.00,   0.00, 1020.3,   61.6, -999.0
11-08-2022, 00:43:16,    100,    0.0,   16.0,   0.00,   0.00, 1020.3,   61.6, -999.0
11-08-2022, 00:43:26,    100,    0.0,   16.1,   0.00,   0.00, 1020.2,   61.7, -999.0
11-08-2022, 00:43:36,    101,    0.0,   16.0,   0.00,   0.00, 1020.2,   61.8, -999.0
11-08-2022, 00:43:46,    100,    0.0,   16.1,   0.00,   0.00, 1020.2,   61.6, -999.0
11-08-2022, 00:43:56,    100,    0.0,   16.0,   0.00,   0.00, 1020.2,   61.7, -999.0
11-08-2022, 00:44:06,    101,    0.0,   16.1,   0.00,   0.00, 1020.2,   61.7, -999.0
11-08-2022, 00:44:16,    101,    0.0,   16.0,   0.00,   0.00, 1020.2,   61.8, -999.0
11-08-2022, 00:44:25,    100,    0.0,   16.1,   0.00,   0.00, 1020.2,   61.8, -999.0
11-08-2022, 00:44:36,    101,    0.0,   16.1,   0.00,   0.00, 1020.2,   61.7, -999.0
11-08-2022, 00:44:45,    100,    0.0,   16.1,   0.00,   0.00, 1020.2,   61.6, -999.0
11-08-2022, 00:44:55,    100,    0.0,   16.1,   0.00,   0.00, 1020.2,   61.7, -999.0
11-08-2022, 00:45:05,    100,    0.0,   16.1,   0.00,   0.00, 1020.2,   61.7, -999.0
11-08-2022, 00:45:15,    100,    0.0,   16.1,   0.00,   0.00, 1020.2,   61.7, -999.0
11-08-2022, 00:45:25,    101,    0.0,   16.1,   0.00,   0.00, 1020.2,   61.6, -999.0
11-08-2022, 00:45:35,    100,    0.0,   15.9,   0.00,   0.00, 1020.2,   61.7, -999.0
11-08-2022, 00:45:45,    100,    0.0,   16.0,   0.00,   0.00, 1020.2,   61.7, -999.0
11-08-2022, 00:45:55,    100,    0.0,   16.0,   0.00,   0.00, 1020.2,   61.6, -999.0
11-08-2022, 00:46:05,    100,    0.0,   16.1,   0.00,   0.00, 1020.2,   61.8, -999.0
11-08-2022, 00:46:15,    100,    0.0,   16.0,   0.00,   0.00, 1020.2,   61.7, -999.0
11-08-2022, 00:46:25,    100,    0.0,   16.1,   0.00,   0.00, 1020.2,   61.7, -999.0
11-08-2022, 00:46:35,    100,    0.0,   16.0,   0.00,   0.00, 1020.2,   61.7, -999.0